www.pogodaiklimat.ru

Погода и климат >> Архив погоды >> Россия >> Ханты-Мансийский АО >> Угут


АРХИВ ПОГОДЫ в Угуте

Время (UTC), дата Ветер
(напр.,м/с)
 
Видим.   Явления Облачность Т
(С)
Тd
(С)
f
(%)
Тe
(С)
Тes
(С)
Комфортность P
(гПа)
Po
(гПа)
Тmin
(С)
Tmax
(С)
R
(мм)
R24
(мм)
S
(см)
00 17.01 Ю 1 10 км 10/0
[As op]
-9.2 -11.0 87 -12 -12 1020.7 1014.2
03 17.01 ЮЗ 2 10 км 10/0
[As op]
-8.0 -10.0 85 -12 -12 1021.7 1015.2 -13.9 55
06 17.01 Ю 2 10 км слаб. снег 10/6 300 м
[Frnb As op]
-8.2 -10.4 84 -13 -13 1021.6 1015.1
09 17.01 Ю 2 10 км {снег} 10/4 600 м
[Cb cap Cs]
-8.2 -10.7 82 -13 -12 1020.9 1014.3
12 17.01 Ю 3 10 км {снег} 10/0
[Cs]
-10.0 -12.5 82 -16 -16 1019.8 1013.3
15 17.01 Ю 2 10 км {метель} 10/0
[Cs]
-10.5 -13.5 79 -15 -15 1018.4 1011.8 -7.8 0.3
18 17.01 Ю 3 10 км позёмок 10/0
[Cs]
-9.1 -12.4 77 -15 -15 1015.6 1009.1
21 17.01 Ю 3
{10}
10 км позёмок 10/0
[Cs]
-8.0 -11.1 78 -14 -14 1013.2 1006.7
00 18.01 Ю 4
{10}
10 км позёмок 10/4 600 м
[Cb cap Cs]
-7.6 -10.8 78 -14 -14 1010.9 1004.5
03 18.01 Ю 3
{10}
4000 м слаб. снег {метель} 10/6 300 м
[Frnb As op]
-8.1 -10.3 84 -14 -14 1010.3 1003.8 -10.6 0.7 54
06 18.01 ЮЗ 4 10 км позёмок {ливн. осадки, снег} 10/3 600 м
[Cb cap Cs]
-7.7 -10.7 79 -14 -14 1010.9 1004.5
09 18.01 ЮЗ 3 10 км {метель} 8/8
[Sc]
-7.7 -10.7 79 -13 -13 1011.3 1004.8
12 18.01 ЮЗ 3 10 км {метель} 8/8
[Sc]
-7.7 -10.6 80 -13 -13 1011.3 1004.8
15 18.01 Ю 2 50 км 10/10 600 м
[]
-8.5 -10.4 86 -13 -13 1010.5 1004.0
18 18.01 Ю 3 10 км позёмок 9/9 600 м
[Cb cap]
-7.6 -10.1 82 -13 -13 1007.9 1001.5
21 18.01 Ю 3 10 км позёмок 9/9 600 м
[Cb cap]
-7.1 -9.8 81 -13 -13 1005.5 999.0
00 19.01 ЮЗ 5-10
{12}
4000 м слаб. ливневой снег {метель} 10/10 600 м
[Cb cap]
-6.1 -8.8 81 -13 -13 1004.1 997.7
03 19.01 ЮЗ 5
{12}
10 км сильный позёмок {ливн. осадки} 6/3 600 м
[Cb cap Ci fib]
-7.7 -10.5 80 -15 -15 1005.2 998.8 -8.5 0.6 57
06 19.01 ЮЗ 5
{10}
10 км сильный позёмок {ливн. осадки} 8/3 600 м
[Cb cap Ac trans]
-7.0 -9.9 80 -14 -14 1007.1 1000.7
09 19.01 ЮЗ 5
{11}
10 км сильный позёмок 6/6 300 м
[Cb cap]
-6.5 -9.8 77 -14 -14 1008.6 1002.1
12 19.01 ЮЗ 4
{10}
10 км позёмок 6/0
[Ci fib]
-7.8 -10.3 82 -15 -15 1009.6 1003.2
15 19.01 ЮЗ 4 10 км сильный позёмок 10/0
[Cs]
-8.4 -11.1 81 -15 -15 1010.3 1003.8 -6.1
18 19.01 Ю 3 10 км {метель} 10/0
[As trans]
-7.9 -10.4 82 -14 -14 1008.0 1001.5
21 19.01 Ю 2 10 км 10/8 1000 м
[Sc As trans]
-7.9 -10.8 80 -12 -12 1007.0 1000.6
00 20.01 ЮЗ 3 10 км позёмок 10/10 600 м
[Cb cap]
-7.2 -10.6 77 -13 -13 1007.4 1001.0
03 20.01 ЮЗ 3 10 км позёмок 9/9 600 м
[Cb cap]
-7.0 -10.0 79 -13 -13 1008.8 1002.3 -8.4 54
06 20.01 ЮЗ 3 10 км {метель} 9/9 600 м
[Cb cap]
-6.4 -8.8 83 -12 -12 1010.8 1004.4
09 20.01 ЮЗ 2 10 км {ливн. осадки} 9/9 600 м
[Cb cap]
-6.5 -9.4 80 -11 -11 1012.1 1005.6
12 20.01 ЮВ 1 10 км {ливн. осадки} 6/6 600 м
[Cb cap]
-8.4 -10.0 88 -11 -11 1013.0 1006.6
15 20.01 ЮВ 1 10 км 10/0
[As op]
-7.7 -9.6 86 -10 -10 1012.4 1005.9 -6.3 0.0
18 20.01 В 1 10 км 10/0
[As op]
-7.9 -9.6 88 -10 -10 1011.4 1005.0
21 20.01 ЮВ 1 10 км слаб. снег 10/0
[As op]
-7.4 -9.2 87 -10 -10 1010.0 1003.5
00 21.01 Ю 2 10 км слаб. снег 10/0
[As op]
-7.2 -9.0 87 -12 -12 1008.3 1001.8
03 21.01 Ю 2 4000 м слаб. снег 10/0
[As op]
-6.8 -8.6 87 -11 -11 1005.9 999.5 -7.9 2 59
06 21.01 Ю 2 4000 м слаб. снег 10/0
[As op]
-5.4 -7.2 87 -10 -10 1004.5 998.2
09 21.01 ЮЗ 4 10 км позёмок {снег} 10/8 600 м
[Cb cap As op]
-3.6 -5.7 85 -10 -10 1004.1 997.8
12 21.01 ЮЗ 4 10 км позёмок {ливн. осадки, снег} 10/8 600 м
[Cb cap Cs]
-6.6 -9.5 80 -13 -13 1005.9 999.5
15 21.01 ЮЗ 6 10 км слаб. ливневой снег {метель} 9/9 600 м
[Cb cap]
-8.0 -11.2 78 -16 -16 1008.4 1002.0 -3.5 2
18 21.01 ЮЗ 3 10 км позёмок {ливн. осадки} 3/3 600 м
[Cb cap]
-12.7 -14.9 84 -19 -19 1011.9 1005.3
21 21.01 ЮЗ 2 10 км {метель} 3/0
[Ac trans]
-15.6 -17.9 82 -21 -21 1013.8 1007.2
00 22.01 Ю 1 10 км {метель} 10/0
[Cs]
-14.8 -17.0 83 -17 -17 1013.8 1007.1
03 22.01 Ю 2 10 км 8/0
[Ci fib]
-14.7 -17.1 82 -20 -20 1013.5 1006.8 -15.6 0.0 61
06 22.01 Ю 3 4000 м слаб. снег 10/0
[As op]
-12.1 -14.9 80 -18 -18 1012.9 1006.3
09 22.01 ЮЗ 3
{10}
10 км позёмок {снег} 8/3 600 м
[Cb cap Ci fib]
-11.1 -14.9 73 -17 -17 1013.9 1007.3
12 22.01 Ю 2 10 км в посл. час снег {метель} 8/0
[Ac trans Ci fib]
-11.9 -14.6 80 -16 -16 1014.1 1007.6
15 22.01 Ю 2 10 км слаб. снег 10/0
[As trans]
-10.8 -13.1 83 -15 -15 1012.9 1006.3 -10.8 0.6
18 22.01 Ю 2 4000 м слаб. снег 10/0
[As trans]
-9.9 -12.1 84 -14 -14 1011.8 1005.3
21 22.01 Ю 2 4000 м слаб. снег 10/0
[As trans]
-10.1 -12.3 84 -15 -15 1011.6 1005.1
00 23.01 Ю 2 10 км слаб. снег 10/0
[Ac trans Cs]
-10.4 -12.6 84 -15 -15 1011.9 1005.3
03 23.01 Ю 2 10 км в посл. час снег 4/0
[Ac trans]
-12.4 -14.4 85 -17 -17 1013.3 1006.7 -12.4 2 62
06 23.01 ЮЗ 3 10 км {снег} 3/0
[Ci fib]
-11.6 -13.9 83 -18 -17 1015.4 1008.8 -12.8
09 23.01 Ю 2 10 км 8/0
[Ci sp]
-11.5 -14.4 79 -16 -16 1017.2 1010.6
12 23.01 штиль 0 10 км 3/0
[Ci fib]
-14.9 -16.7 86 -15 -15 1018.3 1011.6
15 23.01 Ю 1 10 км слаб. снег 10/6 1000 м
[Sc Cs]
-13.9 -16.0 84 -16 -16 1019.1 1012.4 -11.1 0.2
18 23.01 Ю 1 10 км в посл. час снег 9/9 1000 м
[Sc]
-14.3 -16.4 84 -17 -17 1019.5 1012.8

 

Местоположение метеостанции Угут (Ханты-Мансийский АО, Россия): широта 60.50 долгота 74.02 высота над уровнем моря 48 м.

В архиве по умолчанию представлена погода в Угуте за последнюю неделю. Архивные данные за месяц целиком и за предыдущие месяцы, начиная с января 2011 года, Вы можете получить, выбрав интересующий диапазон дат из раскрывающегося списка и нажав кнопку "Ввод!".


*Определитесь, кто Вы:
робот инопланетянин человек

Внимание! Время в таблицах - всемирное. Для получения местного времени необходимо прибавить поправку, которая равна 5 ч.

Смотрите также архив погоды в соседних городах и на ближайших метеорологических станциях:

Погода в Сургуте (Ханты-Мансийский АО, Россия) (98 км)
Погода в Нефтеюганске (Ханты-Мансийский АО, Россия) (99 км)
Погода в Таурово (Ханты-Мансийский АО, Россия) (110 км)
Погода в Нижневартовске (Ханты-Мансийский АО, Россия) (148 км)
Погода в Салыме (Ханты-Мансийский АО, Россия) (148 км)
Погода в Сытомино (Ханты-Мансийский АО, Россия) (172 км)
Погода в Когалыме (Ханты-Мансийский АО, Россия) (194 км)
Погода в Александровском (Томская область, Россия) (211 км)
Погода в Радужном (Ханты-Мансийский АО, Россия) (255 км)
Погода в Новом Васюгане (Томская область, Россия) (256 км)

Пояснения к столбцам:

Ветер - указаны скорость ветра в м/с - средняя за 10 мин, порывы в срок и между сроками (в фигурных скобках) и направление, откуда дует ветер: С - северный, СВ - северо-восточный, В - восточный, ЮВ - юго-восточный, Ю - южный, ЮЗ - юго-западный, З - западный, СЗ - северо-западный.
Видимость - горизонтальная дальность видимости в метрах или километрах. При видимости от 1 до 10 км при отсутствии осадков обычно наблюдается дымка, при ухудшении видимости до 1 км и менее - туман. В сухую погоду видимость может ухудшаться дымом, пылью или мглою.
Явления - указаны атмосферные явления, наблюдавшиеся в срок или в последний час перед сроком; фигурными скобками обозначены явления, наблюдавшиеся между сроками (за 1-3 часа до срока); квадратными скобками обозначены град или гололедные отложения с указанием их диаметра в мм.
Облачность - указаны через наклонную черту общая и нижняя облачность в баллах и высота нижней границы облаков в метрах; квадратными скобками обозначены формы облаков: Ci - перистые, Cs - перисто-слоистые, Cc - перисто-кучевые, Ac - высококучевые, As - высокослоистые, Sc - слоисто-кучевые, Ns - слоисто-дождевые, Cu - кучевые, Cb - кучево-дождевые. Подробнее классификацию облаков см. в Атласе облаков (PDF).
T - Температура воздуха - температура, измеренная на высоте 2 м над землей.
Td - Температура точки росы - температура, при понижении до которой содержащийся в воздухе водяной пар достигнет насыщения.
f - Относительная влажность воздуха - влажноcть воздуха, измеренная на высоте 2 м над землей.
Te - Эффективная температура - температура, которую ощущает одетый по сезону человек в тени. Характеристика душности погоды. При расчете учитывается влияние влажности воздуха и скорости ветра на теплоощущения человека.
Tes - Эффективная температура на солнце - температура, которую ощущает человек, с поправкой на солнечный нагрев. Характеристика знойности погоды. Зависит от высоты солнца над горизонтом, облачности и скорости ветра. Ночью, в пасмурную погоду, а также при ветре 12 м/с и более поправка равна нулю.
P - Атмосферное давление - приведенное к уровню моря атмосферное давление.
Po - Атмосферное давление - измеренное на уровне метеостанции атмосферное давление.
Tmin - Минимальная температура - минимум температуры воздуха на высоте 2 м над землей.
Tmax - Максимальная температура - максимум температуры воздуха на высоте 2 м над землей.
R - Количество осадков - Количество выпавших осадков за период времени, мм. При наведении курсора мыши на число - период времени, за который выпало указанное количество осадков.
R24 - Количество осадков - Количество выпавших осадков за 24 часа, мм.
S - Снежный покров - Высота снежного покрова, см. При наведении курсора мыши на число - состояние снежного покрова и степень покрытия местности в баллах.